Theta_e
295 288 287 285 286 285 287 288 288 288 288 287 286 285 284 283 284 287 288 289 289 288 286 287 285 285 285 287 288 287 285 284 284 284 283 283 284 284 283 283 283 283 284 287 286 285 286 287 285 285 284 284 284 285 286 287 287 287 288 288 288 289 289 290 290 290 289 289 289 289 289 288 289 290 291 292 292 293 293 294 295 296 296 296 297 299
294 288 286 289 287 286 287 287 289 289 288 287 285 283 283 284 284 287 288 290 289 287 282 284 285 286 287 287 287 286 284 283 284 283 283 283 284 284 283 282 282 283 285 285 284 285 285 284 285 285 284 285 283 284 285 285 286 287 287 287 288 289 289 289 290 289 289 289 289 288 288 289 289 289 290 290 291 292 294 294 294 295 295 296 297 298
286 286 288 290 288 288 288 289 288 287 288 286 284 283 282 284 285 288 289 289 288 288 283 283 284 285 287 288 287 285 285 284 285 284 284 283 283 283 282 282 282 282 283 282 283 284 282 284 284 283 283 283 283 284 284 285 286 286 287 288 288 289 289 289 289 289 289 289 290 289 289 289 289 290 291 291 292 292 292 293 293 294 294 296 297 298
286 285 290 289 288 288 287 288 288 288 288 284 283 282 282 283 284 280 285 286 288 286 283 284 285 286 287 285 285 286 285 283 284 284 284 284 283 282 283 282 281 281 281 282 282 282 281 281 281 281 282 282 284 284 284 285 286 287 288 288 288 288 289 288 289 290 289 290 290 290 289 289 289 289 290 290 290 290 291 291 293 293 294 294 295 297
288 291 290 288 289 288 287 289 287 285 283 284 285 283 283 284 284 283 283 285 287 287 287 285 283 281 285 282 282 283 284 284 284 284 283 283 283 283 283 282 282 281 281 281 282 281 281 280 281 281 282 282 283 284 284 285 286 287 287 287 288 288 288 288 288 288 288 289 288 288 288 287 286 287 286 286 286 287 287 287 288 289 292 293 294 295
287 289 291 288 290 289 289 288 287 286 283 282 285 287 286 286 284 283 284 284 280 279 283 283 276 275 280 283 283 281 282 282 283 282 282 282 283 282 281 281 282 283 282 282 282 282 281 281 281 282 282 282 282 284 284 284 286 286 287 287 287 287 288 287 287 287 288 287 285 284 283 282 282 282 282 282 282 283 283 284 286 288 290 292 293 295
287 290 291 289 289 289 289 286 287 288 283 282 284 287 285 284 284 283 282 281 275 274 281 284 276 274 279 280 281 281 281 281 282 282 282 282 282 281 281 281 281 281 282 282 281 281 280 280 280 281 281 282 282 283 284 285 286 286 286 286 287 287 287 287 287 287 286 284 284 283 282 282 281 281 282 283 283 283 284 284 284 285 286 288 291 293
287 288 287 288 288 286 284 284 286 288 283 282 284 285 284 283 282 282 282 281 280 282 283 283 281 276 276 280 282 281 280 280 280 281 281 281 280 280 280 280 280 280 280 281 281 280 280 280 280 281 282 282 283 283 285 285 286 285 285 285 286 286 286 286 286 285 285 283 283 282 281 281 281 281 281 282 282 283 284 283 283 283 284 286 289 292
288 286 286 286 286 284 284 284 286 287 285 282 285 284 283 282 282 282 281 279 279 278 275 278 281 276 275 278 283 281 279 278 279 280 280 281 280 280 279 280 280 280 281 280 281 280 280 280 281 281 281 282 283 284 284 285 285 285 285 285 285 285 285 285 285 284 284 283 282 281 281 280 281 281 281 282 283 282 282 281 282 282 282 284 286 290
288 289 287 287 285 284 285 286 286 287 285 285 284 285 284 283 283 282 279 278 278 276 274 278 280 273 276 278 278 280 280 279 279 279 280 280 279 279 280 279 280 280 280 281 281 280 280 280 281 281 282 282 282 283 285 284 284 284 284 284 284 283 284 284 283 283 282 282 282 280 280 279 279 280 280 280 279 279 280 279 280 281 282 283 285 289
289 291 292 288 285 286 284 284 286 287 288 288 286 284 282 282 283 281 279 278 275 271 277 279 279 278 272 276 278 277 280 282 280 279 279 279 279 279 279 279 280 280 280 280 280 279 280 281 281 281 281 282 282 282 283 284 284 283 284 283 283 283 283 283 282 282 281 281 281 280 279 279 278 278 278 277 277 278 278 278 279 281 282 284 286 289
287 289 288 286 290 289 285 287 287 287 286 285 282 280 280 280 277 278 273 276 270 272 275 276 279 279 271 274 279 282 278 282 281 279 279 278 278 279 279 279 279 279 279 279 279 279 280 280 280 280 281 281 282 282 283 283 283 283 283 283 282 282 282 282 282 281 281 280 280 279 279 278 277 277 277 276 276 276 277 279 279 280 281 282 285 287
283 284 285 288 290 289 285 284 281 283 285 282 279 279 276 271 272 267 271 270 269 272 274 275 276 275 275 279 278 283 279 281 282 281 279 278 278 278 278 279 279 279 278 278 279 279 279 279 279 279 280 281 281 282 282 282 282 282 282 282 281 281 281 281 281 280 280 279 279 279 278 278 278 277 277 276 276 277 277 277 277 278 278 279 280 282
282 282 285 286 287 289 286 282 279 281 282 281 281 277 274 270 267 271 271 271 270 273 276 275 277 273 276 277 280 280 278 280 280 280 279 278 278 278 279 278 278 279 278 279 279 278 278 278 279 280 280 280 281 281 282 282 282 282 282 281 281 280 280 280 280 280 279 279 279 278 278 277 277 276 276 276 276 276 276 277 276 277 277 277 278 279
275 276 282 284 283 287 287 284 282 280 280 282 281 280 277 275 272 274 272 270 274 273 273 277 272 269 269 274 277 279 279 279 279 279 278 279 278 278 278 278 278 277 277 278 278 279 279 279 279 279 280 280 280 281 281 281 281 281 281 281 280 279 280 280 279 279 278 278 278 278 277 277 276 276 275 275 276 276 275 276 276 276 277 277 278 279
280 281 283 285 284 287 286 287 285 282 281 280 282 281 277 277 280 277 272 269 269 272 271 270 273 273 274 277 278 278 278 278 278 278 278 278 278 278 277 278 277 277 278 278 278 278 278 278 279 279 280 280 280 280 280 281 281 281 281 280 280 279 279 279 279 278 278 277 277 277 276 276 276 276 275 275 275 275 275 275 276 276 276 277 277 279
281 278 282 284 283 282 282 283 286 286 277 280 281 277 280 283 281 277 277 276 273 272 273 272 274 277 276 278 277 277 277 277 277 277 277 277 277 277 277 277 277 277 277 277 278 277 278 278 279 279 279 279 280 280 280 281 281 280 280 279 279 279 279 279 278 278 277 277 276 276 276 275 275 274 274 274 274 274 274 275 275 276 276 277 277 278
282 283 282 281 282 283 281 282 283 283 285 280 277 279 283 285 283 279 273 272 272 268 272 271 273 275 273 270 276 275 275 275 275 276 277 277 276 276 277 277 277 277 278 277 277 278 278 278 279 279 280 279 279 280 280 280 280 280 279 279 278 278 278 278 278 277 277 276 276 275 275 275 275 275 274 274 274 274 274 273 274 275 275 276 276 277
282 280 280 279 281 282 283 284 282 283 285 281 281 286 280 275 275 277 272 270 269 270 271 275 273 276 275 275 273 274 274 275 275 275 275 275 275 276 276 276 277 276 277 277 277 278 278 278 279 279 279 279 279 280 280 280 280 279 279 279 279 278 278 278 277 277 277 276 275 275 275 275 275 274 274 274 274 274 273 272 273 274 274 275 276 277
284 281 280 279 279 281 280 280 276 278 283 282 283 280 284 279 279 274 276 274 276 272 272 273 274 274 276 278 276 276 277 276 275 274 275 276 276 276 276 276 276 276 276 277 277 278 278 278 278 278 277 277 278 279 279 279 279 278 278 278 278 278 278 277 276 276 275 275 275 275 275 274 274 274 274 273 273 272 272 272 273 273 273 274 275 276
281 281 277 278 278 280 277 279 278 279 276 276 277 275 278 280 280 279 276 273 274 272 271 272 270 274 277 279 278 278 278 277 276 276 276 276 276 276 276 276 276 277 277 277 278 277 277 277 278 277 276 277 278 279 279 278 278 278 278 278 278 277 277 276 276 276 275 275 274 274 274 274 274 273 273 273 273 273 272 273 273 273 274 274 275 276
279 279 279 276 275 276 279 281 282 281 282 279 278 277 279 277 275 272 272 276 274 274 271 270 270 277 277 279 279 279 279 277 277 277 276 276 276 276 277 276 276 276 277 277 277 277 277 277 277 277 277 277 278 278 277 277 277 277 277 277 277 276 276 275 275 275 275 274 274 274 273 273 273 273 273 272 272 272 272 272 272 273 273 273 274 275
282 278 277 277 279 280 281 281 281 282 281 280 279 279 281 280 279 275 271 274 273 274 276 275 272 275 280 280 279 279 278 278 277 277 276 276 276 276 276 276 276 277 277 278 277 276 277 277 276 276 277 277 277 277 277 277 277 276 276 276 276 275 275 275 275 275 274 274 274 273 273 273 272 272 272 272 271 271 272 272 272 272 272 272 273 274
289 278 275 280 280 279 278 278 279 280 281 279 279 279 279 278 279 278 278 278 274 274 271 272 270 274 278 280 280 279 278 277 277 277 277 276 276 276 276 276 276 277 277 277 276 276 277 276 275 276 276 277 277 276 276 276 276 276 276 275 275 274 274 274 274 274 274 274 273 273 273 273 273 272 272 271 271 271 271 271 271 272 272 272 273 273
279 280 278 273 273 279 278 276 277 278 279 276 276 279 279 281 280 280 279 276 272 275 275 272 268 274 280 279 278 278 278 277 276 276 277 276 276 276 276 276 276 276 276 275 276 276 276 275 275 276 276 276 276 276 276 275 275 275 274 274 274 274 274 273 273 273 273 273 272 272 272 272 272 272 271 271 271 270 271 271 271 271 271 271 272 272
284 280 279 274 274 273 274 276 278 273 275 277 278 278 280 279 278 275 273 275 271 275 276 272 272 278 278 280 278 278 278 277 276 277 276 277 276 276 276 276 276 276 276 276 275 275 275 275 276 276 275 275 275 275 275 274 274 274 274 273 273 273 272 272 273 273 273 272 272 272 271 271 271 271 271 271 270 270 270 270 270 270 271 271 271 271
279 279 281 282 280 279 282 284 280 280 276 274 276 277 277 279 279 279 278 274 272 275 274 275 276 276 278 277 277 278 277 277 276 276 276 276 276 276 276 276 276 277 277 276 276 275 274 275 275 275 275 275 274 274 274 273 273 273 272 272 272 272 271 272 272 272 271 271 271 271 271 270 270 271 270 270 270 270 270 270 269 270 270 270 270 270
277 277 280 281 283 285 286 286 283 282 280 281 280 278 277 278 278 277 275 273 278 273 271 277 278 276 277 279 279 279 279 278 276 276 275 276 276 276 276 277 280 275 275 275 275 274 275 275 275 275 274 274 274 273 273 273 272 272 271 271 271 271 271 271 271 271 271 271 270 270 270 270 271 270 271 270 270 270 269 269 269 269 269 269 269 269
279 279 282 281 281 283 284 284 284 283 281 281 280 280 277 277 277 275 276 278 278 274 273 278 279 276 277 278 280 281 281 280 276 276 276 276 276 275 275 275 275 275 275 275 274 274 275 274 274 274 274 273 273 272 271 271 271 271 270 270 270 270 270 270 270 270 270 269 269 270 270 270 270 270 270 270 270 269 268 268 268 268 268 268 268 269
280 279 282 282 281 282 282 282 283 281 281 281 280 279 279 278 277 277 277 278 277 276 278 278 278 277 279 279 281 281 280 278 276 276 276 275 275 276 274 274 274 275 274 274 274 274 274 274 274 274 273 272 272 271 270 270 270 270 269 269 269 269 269 269 269 268 268 268 269 269 269 269 269 269 269 269 269 268 268 268 267 267 267 268 268 268
282 278 283 280 279 279 282 282 281 280 279 279 280 280 279 279 278 278 277 277 277 277 277 277 276 276 280 282 282 282 278 277 276 275 275 275 275 275 274 274 274 275 275 274 274 274 274 274 273 273 272 271 271 270 269 269 269 269 268 268 268 268 268 268 267 268 268 268 268 269 269 269 269 269 268 268 268 268 267 267 266 266 266 267 267 267
282 278 279 278 275 277 280 279 279 279 279 277 277 278 278 278 276 277 276 277 276 274 276 276 274 274 280 280 279 278 277 276 275 275 275 275 275 275 274 274 274 274 274 273 273 273 273 273 273 272 271 270 270 269 269 268 268 268 267 267 267 267 267 267 267 267 267 268 268 268 268 268 268 267 267 267 266 266 266 265 265 265 265 266 266 266
281 278 277 276 274 276 276 277 275 275 275 273 275 277 278 278 279 279 280 279 278 278 275 273 274 279 280 278 277 276 276 275 275 275 275 275 275 274 275 274 274 274 273 272 273 273 272 272 272 271 270 269 269 269 268 268 267 266 267 266 266 266 266 266 266 266 266 267 267 267 268 267 267 266 265 265 265 265 265 264 264 264 265 265 265 266
281 279 277 280 273 272 272 274 275 272 269 275 280 282 280 278 279 277 277 279 280 279 278 280 280 281 278 277 277 276 275 275 276 275 276 276 275 274 274 274 274 273 273 272 272 272 272 272 271 271 270 269 269 269 268 268 267 266 266 266 266 265 265 265 265 266 266 266 267 267 267 266 265 265 264 264 264 264 264 264 263 264 264 265 265 265
279 280 277 279 273 271 272 273 271 268 273 278 276 278 280 281 281 279 279 280 280 281 280 279 280 279 280 279 278 277 276 275 275 276 276 276 276 275 275 274 273 273 272 271 272 272 271 271 270 269 269 269 268 268 267 266 266 266 265 265 264 264 264 264 265 265 265 265 266 266 265 265 264 264 263 263 264 263 263 263 263 263 264 265 265 265
279 278 277 276 274 273 268 270 266 271 280 280 277 276 278 277 278 278 276 279 280 280 280 279 279 280 280 279 275 276 276 276 275 275 276 276 276 275 274 274 273 272 271 272 271 271 270 269 269 268 268 268 267 266 266 265 265 264 263 264 263 263 264 264 264 264 265 265 265 265 264 264 263 262 262 262 262 262 262 263 263 263 264 264 265 266
282 280 278 273 278 270 272 270 274 279 277 280 281 278 276 276 275 275 272 278 280 280 279 278 279 279 279 275 275 275 275 275 274 274 275 275 275 275 275 274 273 272 272 271 271 270 269 269 269 268 268 267 266 265 265 265 264 263 262 262 262 263 263 263 263 264 264 264 264 263 263 262 262 261 261 261 261 261 262 262 263 263 264 264 265 265
284 279 280 274 274 275 270 271 271 271 269 276 278 279 281 281 280 278 275 275 279 279 280 279 278 278 276 274 275 275 274 273 271 273 275 274 275 275 274 273 273 272 271 270 270 269 269 269 268 268 266 265 265 265 265 264 263 262 261 261 262 262 262 262 263 263 263 263 263 262 262 262 261 261 260 260 261 261 262 263 264 264 265 265 265 265
282 282 280 279 275 273 271 269 269 269 273 277 276 278 278 279 279 277 271 271 276 278 279 279 278 277 275 275 274 274 272 268 270 272 275 274 273 273 273 272 272 271 270 270 269 268 268 268 267 266 265 265 263 264 264 263 262 261 260 261 261 261 261 262 262 262 262 262 262 262 261 261 260 260 260 260 261 262 262 263 263 264 265 265 266 266
277 277 276 273 274 274 272 270 269 274 274 275 275 277 277 279 280 275 265 268 275 276 277 278 278 276 275 276 275 274 273 269 271 273 275 274 274 273 272 271 271 270 269 269 268 268 267 266 265 264 263 263 263 264 263 262 261 260 260 260 261 260 260 261 261 261 262 261 261 261 260 260 260 260 260 260 261 262 263 264 264 265 265 266 267 267
274 273 276 271 274 274 274 271 274 274 280 277 277 277 278 280 278 269 269 275 276 277 277 278 277 277 276 275 275 272 275 275 275 274 275 273 273 272 271 270 270 270 269 268 268 269 265 265 264 263 263 263 263 262 262 261 260 259 260 260 260 259 260 261 261 261 260 260 259 259 259 259 259 259 260 261 261 262 264 265 265 266 267 267 268 269
273 273 273 275 271 272 273 271 271 274 280 278 278 278 280 277 267 269 276 277 277 277 277 279 277 276 276 276 276 276 276 275 274 274 273 273 273 272 271 270 269 268 268 268 268 266 264 263 263 262 262 263 262 261 261 260 259 259 259 259 258 259 260 260 260 259 259 258 258 258 258 259 259 260 260 261 263 264 264 265 266 266 267 268 269 269
274 270 269 272 274 273 273 269 268 267 278 281 279 277 280 275 276 279 277 278 278 278 278 277 278 277 277 276 277 276 275 274 274 274 273 273 272 270 269 269 269 267 267 265 264 264 264 262 262 262 261 262 261 261 260 259 258 258 258 257 258 259 260 259 259 258 257 257 257 257 258 258 259 260 262 263 264 263 263 264 265 265 266 267 268 270
280 271 271 274 277 267 270 267 269 277 279 281 279 275 278 282 280 279 279 277 278 277 277 277 277 278 277 277 276 276 276 275 273 273 272 271 271 270 269 268 267 266 265 265 264 263 261 261 261 261 260 260 260 260 259 258 257 257 257 257 259 259 258 258 257 256 256 256 256 257 258 259 260 261 262 262 262 262 263 263 264 265 265 266 267 269
281 278 279 275 279 274 273 277 280 278 280 281 281 281 281 282 280 280 280 279 278 277 277 278 277 277 278 277 277 277 275 275 274 273 272 271 270 269 268 267 266 265 264 263 262 261 260 260 259 259 258 259 259 259 258 258 256 256 255 257 258 257 257 256 255 255 255 255 256 257 258 259 260 261 261 262 262 261 262 263 263 263 264 265 266 268
283 284 281 280 279 282 283 282 280 279 280 280 282 281 280 281 279 279 279 278 279 279 278 278 278 278 277 277 276 275 276 275 273 272 271 270 269 268 267 265 265 264 263 261 260 260 259 258 257 257 256 257 258 258 258 258 257 255 255 257 257 256 256 255 254 254 254 255 256 257 258 259 260 261 261 261 261 261 262 262 262 262 263 264 265 266
283 283 281 280 282 279 275 284 281 280 280 280 281 281 280 281 280 280 279 279 279 279 279 278 279 278 278 277 277 276 276 274 273 271 270 269 268 267 265 264 264 263 261 259 260 259 258 256 256 256 256 255 257 257 257 256 256 256 256 256 256 255 255 254 254 254 254 255 256 257 258 259 259 260 260 260 261 261 262 262 262 262 262 263 263 264
279 284 280 280 280 280 281 280 282 282 281 281 281 280 280 280 279 280 280 279 279 279 279 278 278 277 276 276 277 276 274 273 272 270 269 268 267 266 264 264 262 261 260 260 259 258 256 256 255 255 255 255 257 257 256 256 255 255 255 255 255 254 254 253 253 254 254 255 256 257 258 259 260 260 259 259 260 260 260 261 261 261 261 262 262 263
283 283 277 281 279 281 283 281 280 280 280 280 280 281 282 281 280 279 278 278 278 277 276 276 276 276 276 277 275 274 272 271 272 270 269 267 265 264 263 262 261 260 259 259 258 257 256 255 254 255 255 255 256 256 255 255 255 255 255 255 254 254 253 253 253 253 254 255 256 256 258 259 259 259 259 259 259 260 261 260 260 261 262 263 264 265
281 279 282 280 277 277 278 281 280 275 275 279 279 280 281 281 280 278 277 277 277 275 275 275 272 273 274 274 274 273 272 270 269 268 266 265 265 264 262 260 259 258 258 258 257 256 255 254 254 254 254 255 256 255 254 254 254 254 254 254 254 253 252 252 253 253 254 255 256 257 258 258 258 259 259 259 259 259 260 263 266 264 262 262 267 270
283 284 282 279 279 279 283 283 283 284 282 282 281 281 282 281 279 277 277 277 277 276 276 274 271 270 271 270 271 272 271 269 267 266 264 263 263 262 261 259 258 257 257 257 255 254 254 254 254 254 253 254 255 254 253 253 253 253 253 254 253 253 252 252 252 253 254 255 255 257 258 258 258 258 258 259 259 259 258 258 260 265 267 267 268 269
Wind_Speed
3 1 1 4 6 4 2 3 4 4 3 2 1 1 7 7 8 5 5 3 2 1 7 9 6 5 5 11 12 8 7 7 9 9 7 6 6 5 5 4 4 3 2 2 2 4 2 2 3 3 3 3 4 4 5 7 7 8 9 9 11 10 8 9 12 12 12 12 13 12 13 15 14 14 14 13 12 12 12 14 14 14 13 13 13 11
2 1 5 6 7 4 3 4 1 0 0 2 3 4 8 4 8 7 4 2 0 1 3 4 6 7 7 8 10 6 9 12 12 10 8 8 6 6 6 5 4 4 1 2 3 3 2 2 4 3 4 4 4 5 6 7 7 7 7 7 11 9 8 10 11 13 13 12 11 13 14 16 16 15 14 14 13 13 13 14 14 14 14 14 13 12
2 4 8 8 5 3 3 2 2 3 2 2 4 3 4 8 7 10 4 2 1 2 7 4 6 8 9 11 8 13 15 9 9 10 9 9 7 5 5 5 4 2 0 1 1 2 2 3 4 4 4 4 3 4 5 5 6 6 7 10 11 10 11 11 12 13 14 13 13 14 15 16 16 15 14 14 15 15 15 15 15 14 14 13 12 12
6 4 9 5 3 2 1 1 2 1 0 3 4 2 8 4 2 6 3 3 2 1 4 5 14 11 8 3 9 11 9 4 5 6 7 8 9 7 7 6 5 4 1 1 3 2 3 3 4 4 4 4 5 6 6 6 7 7 9 11 12 12 12 12 13 14 15 15 15 15 15 15 14 16 16 17 17 16 17 17 15 14 14 14 13 13
9 6 1 4 3 3 3 0 2 2 5 4 6 5 5 5 5 5 5 4 6 5 4 10 11 9 9 5 4 3 2 7 6 6 6 5 6 7 5 4 5 4 2 2 2 2 3 4 4 4 5 4 4 4 5 5 7 8 11 12 12 13 13 12 14 16 16 15 15 14 16 15 16 15 14 15 15 15 15 18 19 19 18 17 16 14
9 5 3 4 1 1 1 3 4 4 4 3 6 8 7 3 4 5 4 6 5 6 5 0 9 4 4 12 12 6 5 8 5 9 8 8 7 5 6 6 4 4 2 3 1 1 2 4 4 5 5 4 4 4 4 4 7 9 10 11 13 12 11 12 14 15 13 14 16 17 16 18 18 19 17 15 16 17 18 17 18 20 20 19 16 14
5 0 1 3 3 2 1 3 3 4 5 0 6 5 4 4 2 3 4 4 5 4 2 1 2 12 3 5 8 7 9 10 5 8 8 8 7 6 6 5 4 4 0 0 1 1 3 4 4 5 5 4 4 4 4 6 8 9 10 10 11 11 11 12 13 14 13 16 15 16 17 17 17 18 16 15 15 15 16 16 17 18 20 21 21 17
1 1 4 2 2 2 2 5 4 7 4 5 1 4 3 1 4 5 4 5 9 0 4 4 3 11 11 8 8 12 13 11 9 9 9 9 6 6 6 5 4 2 2 1 0 2 3 4 4 5 5 4 5 4 5 7 7 8 9 9 10 11 12 11 12 14 15 14 15 17 18 17 17 17 20 20 18 16 15 15 15 16 18 20 20 18
2 1 2 1 1 2 6 5 3 5 4 4 2 5 2 4 6 5 4 7 4 4 9 6 5 4 8 4 6 13 9 9 12 12 11 9 7 7 5 5 3 3 2 2 1 2 3 4 5 5 4 3 4 5 5 6 6 7 7 8 9 12 12 10 12 14 14 14 15 15 14 17 16 17 17 17 16 15 15 18 17 16 19 20 20 18
1 2 5 6 4 6 5 2 5 7 1 2 2 1 2 4 4 4 5 5 3 0 13 8 8 6 12 5 6 4 7 12 14 14 12 9 9 8 7 4 4 1 1 0 0 1 3 4 5 4 2 3 4 4 5 5 5 6 6 9 10 12 11 10 12 13 15 15 14 14 15 17 18 16 15 14 16 16 16 17 20 16 16 17 17 16
3 2 4 4 5 4 4 1 3 2 2 1 0 3 4 3 5 1 3 1 2 5 17 5 10 8 9 5 10 12 13 17 10 7 7 7 7 7 6 6 4 4 1 1 1 3 4 6 6 3 4 4 4 4 5 6 6 6 8 9 11 12 11 11 13 13 14 14 13 13 16 17 18 19 17 17 16 15 16 15 15 13 14 14 15 14
1 1 0 2 2 3 3 1 3 1 1 1 1 1 6 8 4 1 2 2 2 9 6 5 11 10 8 5 7 9 1 8 16 19 16 12 10 8 6 5 5 4 2 2 2 4 5 7 5 2 5 5 6 6 7 6 6 7 8 10 13 13 12 11 12 13 13 13 13 13 15 17 17 18 16 18 19 17 18 17 16 14 15 14 15 14
2 6 2 2 2 8 2 1 3 2 1 3 2 2 3 6 5 4 2 3 7 10 2 0 3 2 15 13 5 11 7 7 14 16 17 14 10 8 6 6 5 4 3 3 4 5 7 4 5 5 4 5 5 6 7 8 7 8 8 10 12 15 13 13 13 13 13 13 14 14 15 16 16 17 18 17 17 14 15 16 18 15 13 12 13 13
7 3 2 3 2 4 7 4 2 1 2 4 3 3 1 3 2 8 4 3 5 4 2 4 5 7 4 7 8 10 7 8 10 11 10 11 10 8 7 5 4 4 5 5 6 6 3 4 4 3 3 4 5 6 8 7 8 8 9 11 12 14 12 13 13 13 13 14 14 14 14 14 15 17 17 17 16 16 14 13 17 15 15 14 14 16
4 5 4 4 3 2 5 6 7 3 6 8 3 7 7 5 2 8 1 6 10 7 3 3 2 8 1 3 3 5 6 8 9 9 8 8 8 8 6 6 6 5 5 7 3 2 4 4 4 4 3 4 5 6 6 6 8 9 10 11 12 14 14 13 13 12 14 14 13 13 13 14 14 15 15 15 16 17 16 16 16 15 15 14 15 15
8 8 3 1 0 2 7 1 3 3 1 3 2 4 2 7 4 9 3 3 5 9 8 4 7 3 2 3 3 5 7 7 7 8 8 7 7 6 6 6 6 5 5 2 1 3 4 4 4 3 3 4 4 5 5 7 9 10 11 11 12 13 14 14 13 13 13 14 13 13 14 15 14 14 15 14 14 15 16 18 18 16 14 14 16 16
1 5 1 2 5 1 2 0 1 3 2 1 4 5 6 1 4 4 4 0 1 2 16 3 8 4 1 1 1 4 7 6 6 7 7 7 7 6 6 6 5 3 0 1 1 3 4 4 4 3 4 4 4 4 6 9 9 10 11 11 13 14 14 14 13 12 12 13 14 14 14 14 15 17 17 19 17 18 17 18 19 16 15 16 15 16
4 9 1 3 5 1 1 0 1 2 1 6 3 6 1 2 2 2 5 3 1 5 10 5 9 9 6 8 5 3 7 8 6 8 7 7 7 7 6 6 2 1 1 1 3 3 4 4 4 4 4 4 4 5 9 11 9 8 7 8 12 14 16 16 14 14 13 14 14 14 15 16 16 16 16 15 20 17 16 18 17 17 15 14 15 15
4 8 3 1 1 3 1 1 4 1 1 3 3 2 1 3 4 1 5 5 4 7 8 5 5 14 10 7 6 10 12 13 10 8 8 7 7 7 5 4 1 0 1 2 3 3 4 4 5 5 5 4 4 6 9 10 9 8 7 9 11 14 14 13 12 14 13 12 11 12 14 15 18 17 15 17 16 16 17 18 18 18 18 17 16 16
1 4 4 0 2 1 2 4 5 4 0 2 1 2 1 2 4 3 6 3 1 13 6 10 1 13 7 7 17 17 17 14 10 9 9 9 8 7 5 4 2 3 4 3 2 3 4 5 5 5 5 5 5 8 9 9 8 9 10 10 12 13 12 12 13 13 13 12 12 14 14 14 13 15 18 16 16 18 16 18 18 18 17 17 16 15
3 4 9 0 3 1 2 5 9 9 5 1 2 3 1 3 2 2 1 5 6 6 6 11 14 4 3 3 14 17 17 14 12 11 8 8 7 6 6 5 4 5 3 1 2 3 4 5 5 5 4 4 5 7 7 7 8 9 9 11 12 13 14 14 14 12 12 11 12 14 13 15 17 18 15 16 16 17 20 18 19 17 16 16 17 16
2 2 10 2 1 6 8 3 6 6 8 7 9 9 10 5 5 5 12 5 5 8 7 4 19 8 3 2 7 10 9 11 10 11 9 9 8 7 6 5 6 3 2 2 2 3 4 5 5 4 4 4 6 9 9 8 7 9 10 11 11 11 12 13 14 12 13 13 13 14 12 14 17 17 15 16 17 20 17 19 18 18 18 18 18 17
5 2 1 9 9 11 7 3 1 2 1 3 6 6 8 7 4 6 12 6 0 8 1 11 13 18 7 5 7 9 9 10 9 7 8 7 7 7 7 5 5 4 2 1 2 3 5 5 5 4 5 6 7 9 9 8 9 9 11 12 11 12 14 13 13 13 12 13 14 15 14 15 15 16 17 19 18 17 21 17 20 18 17 18 18 17
3 1 1 9 4 3 1 0 2 1 1 3 5 2 3 11 14 14 12 3 5 1 3 9 12 10 3 1 7 8 7 6 5 8 10 7 6 7 6 5 4 1 1 1 3 4 5 4 4 5 7 8 9 9 9 9 9 10 10 11 12 14 15 14 13 13 14 14 14 15 17 18 17 16 19 19 16 21 18 19 20 18 19 19 18 18
3 4 6 4 5 6 2 4 3 2 1 4 5 7 11 8 6 4 3 2 8 15 14 10 16 16 3 0 1 5 6 7 7 5 11 9 5 6 5 4 4 3 2 2 3 4 4 4 5 6 6 8 9 9 9 10 11 11 12 12 13 14 14 13 14 14 14 13 16 16 15 17 15 20 21 16 17 19 20 22 19 17 18 19 18 18
5 4 7 6 9 13 16 11 8 4 9 5 3 5 7 11 12 2 7 11 12 14 13 14 16 15 1 1 4 5 9 6 5 8 4 7 7 6 5 5 5 5 2 1 3 4 5 5 6 7 7 8 8 9 10 11 12 12 12 13 11 13 14 15 14 15 15 15 15 18 18 18 21 20 18 21 17 18 20 18 20 19 18 18 20 19
3 1 7 12 11 16 17 11 3 6 3 5 5 10 12 10 12 13 11 7 16 10 12 21 16 19 14 6 6 7 6 9 8 6 8 6 6 6 6 6 5 1 0 2 3 3 4 6 7 7 8 8 9 8 9 11 13 13 13 15 13 12 13 14 14 15 15 15 14 16 20 21 16 16 22 15 18 17 16 21 19 19 19 18 19 20
2 3 12 12 19 22 19 14 3 5 10 13 14 13 9 14 12 16 16 21 11 3 20 23 13 16 23 11 12 10 9 7 8 9 8 7 8 9 7 4 2 2 2 2 3 4 6 9 9 8 9 10 10 10 10 11 12 12 13 14 15 14 14 13 15 16 16 15 16 19 16 17 20 21 15 19 15 16 19 16 17 19 18 16 19 20
6 10 12 10 20 20 16 12 6 7 8 13 17 12 13 13 17 21 22 25 14 14 24 25 10 15 18 8 14 11 12 11 11 12 11 10 7 5 4 3 1 1 2 3 3 4 6 9 10 11 10 10 10 12 12 12 13 13 13 13 13 13 14 14 15 16 17 18 14 14 17 19 15 16 21 15 19 18 15 18 17 15 16 16 16 17
2 9 8 6 15 12 13 9 5 9 12 15 22 15 15 17 23 21 22 22 19 23 27 23 25 28 23 11 13 8 8 7 5 6 5 6 5 5 4 2 0 1 2 3 4 5 6 8 9 10 10 10 11 13 13 13 13 14 15 15 15 14 14 14 16 17 17 17 17 19 17 17 20 16 17 21 18 16 18 17 16 15 15 16 17 16
6 6 7 3 7 16 16 4 6 9 12 21 26 13 17 23 20 20 20 20 19 23 25 28 28 29 23 14 12 10 4 4 6 7 8 6 6 5 4 2 0 1 2 3 4 6 6 8 8 9 9 10 12 12 12 13 13 14 15 14 15 15 14 14 16 17 16 19 18 16 18 18 15 17 19 16 15 17 16 17 16 15 15 14 15 16
6 5 5 2 5 14 2 8 8 9 12 20 27 17 21 20 20 22 19 22 17 22 25 22 19 22 23 4 6 5 6 9 10 9 7 5 5 5 3 1 0 0 1 3 5 5 7 8 9 9 10 11 11 11 11 13 14 13 15 15 15 15 15 15 15 17 18 17 16 16 15 15 18 18 16 17 19 18 13 14 14 15 16 15 17 17
8 5 5 4 5 13 2 3 5 3 6 17 27 24 22 24 25 19 18 18 19 21 17 19 23 24 11 2 6 5 8 8 8 8 6 5 6 5 3 2 2 1 1 3 4 6 6 7 7 8 9 9 10 12 12 12 14 14 14 16 16 16 16 16 16 16 18 17 17 17 18 17 17 17 16 16 17 14 14 13 14 15 14 16 17 17
4 9 6 5 6 1 3 4 4 3 9 24 4 6 17 23 22 24 26 26 24 17 19 21 22 11 4 4 7 8 8 9 10 6 7 9 6 5 4 4 3 1 1 2 4 5 5 6 6 6 7 9 10 11 11 11 12 14 13 14 15 15 16 16 17 16 17 18 17 17 17 17 18 18 19 20 18 15 16 15 14 14 15 16 16 16
12 8 6 4 4 3 3 3 1 5 24 2 1 3 5 13 17 22 27 27 24 20 22 24 23 17 15 7 8 7 7 4 5 9 6 7 7 7 7 5 2 0 2 3 5 5 5 6 7 8 9 9 9 10 11 12 10 13 13 13 15 15 15 15 16 16 16 17 17 17 16 17 17 18 17 16 15 17 15 15 16 16 15 15 15 15
10 11 5 3 4 1 4 5 2 20 7 10 5 5 3 1 5 7 18 27 20 18 18 20 23 17 13 9 2 5 10 7 5 3 6 5 8 9 7 5 3 3 2 3 4 5 5 6 8 9 9 8 9 10 9 11 12 13 15 14 13 15 14 15 16 16 16 17 17 17 17 18 21 19 19 19 18 17 17 17 16 16 16 15 14 14
13 6 6 6 6 8 6 9 19 14 23 30 21 6 8 10 9 11 11 25 12 20 17 18 18 11 10 3 9 7 7 6 4 1 1 5 7 5 7 5 5 3 3 2 2 4 3 4 6 6 8 10 10 11 11 11 12 13 15 15 14 14 15 15 16 16 17 16 18 17 18 17 17 19 19 20 20 19 18 17 17 15 13 14 14 14
9 14 6 7 7 7 6 8 5 6 10 22 2 2 6 10 7 4 1 25 4 17 16 18 16 12 5 9 8 9 5 5 5 6 5 4 6 7 5 6 4 4 3 1 1 2 3 4 5 7 8 11 11 11 10 11 13 14 14 15 15 15 16 16 16 17 17 18 17 19 17 18 18 19 19 19 21 20 18 16 15 15 13 13 14 14
3 0 3 12 4 4 6 8 8 8 19 1 2 1 3 7 10 6 4 19 5 14 14 14 14 8 13 13 9 8 7 7 9 5 8 8 6 5 6 4 5 5 3 2 0 2 4 5 6 8 9 10 12 11 11 12 12 12 14 14 15 14 16 16 17 18 18 20 19 18 16 17 18 18 20 20 19 17 17 16 15 15 13 13 13 14
7 5 4 4 11 11 7 5 13 9 14 1 3 1 5 9 10 5 2 11 3 5 6 9 10 10 11 13 13 10 10 9 9 6 9 10 7 5 6 6 5 4 2 2 1 1 2 4 7 10 11 12 12 11 11 11 11 11 13 14 13 14 15 16 17 19 18 19 18 16 17 15 17 18 18 20 20 17 16 15 14 14 13 12 11 12
8 5 10 19 12 10 11 10 6 11 12 7 8 5 7 8 9 6 16 7 3 6 6 8 9 10 12 12 10 9 10 6 5 5 10 8 6 4 3 3 4 4 2 1 2 4 3 4 5 7 10 10 11 10 9 9 11 12 13 13 14 15 15 17 17 18 17 17 18 18 18 16 17 21 20 17 17 15 13 12 13 13 15 14 11 11
2 2 3 3 8 14 9 10 13 11 14 8 7 17 12 9 4 18 2 6 9 6 7 11 9 9 12 14 10 8 5 4 7 9 10 9 9 8 6 6 5 3 3 3 3 3 4 4 6 8 9 9 10 9 9 9 11 12 13 14 15 16 16 17 17 17 17 18 18 17 17 18 18 17 16 16 13 16 18 16 15 15 15 15 14 12
14 11 10 12 5 2 4 8 2 12 6 21 16 6 9 10 9 3 4 1 4 9 9 6 9 8 11 9 8 7 8 7 10 10 9 8 8 8 7 5 4 2 1 1 2 2 3 6 7 8 10 9 9 8 9 9 11 12 12 14 15 15 16 17 17 18 18 17 18 18 18 18 19 18 13 14 17 18 18 17 16 17 15 15 16 15
9 6 4 7 9 9 11 11 15 14 8 19 22 15 15 19 4 7 8 8 1 5 8 7 5 10 10 12 8 6 9 9 5 7 7 6 6 6 6 5 5 3 2 2 2 2 2 6 7 8 9 9 8 8 8 9 11 12 13 15 14 16 15 15 15 16 16 16 16 17 17 18 17 15 14 16 17 17 17 17 17 16 14 15 14 14
20 16 10 11 11 13 14 18 10 8 14 17 15 2 14 14 6 9 7 9 9 5 4 8 9 7 10 10 9 10 7 10 11 10 10 8 7 6 5 4 3 2 2 0 1 2 2 5 6 7 9 9 8 8 7 8 11 14 15 14 14 16 16 17 17 16 16 17 17 17 17 16 15 15 14 15 16 16 15 16 16 15 14 15 14 14
1 13 7 3 9 9 11 9 6 3 10 15 14 5 6 8 4 6 8 7 6 9 9 9 9 10 7 8 10 5 10 9 9 7 6 7 7 5 5 5 3 4 2 1 1 2 2 3 4 5 8 9 8 8 7 8 9 13 15 15 14 15 16 17 18 18 18 17 15 17 17 17 16 15 15 16 14 14 13 14 14 15 15 14 14 14
9 5 7 8 3 10 12 15 18 14 10 15 18 9 2 5 10 7 7 8 8 7 8 5 12 11 11 9 11 11 8 9 9 7 7 7 7 6 6 5 3 3 1 1 3 3 3 4 6 6 7 9 7 7 7 8 9 9 12 14 15 16 16 17 17 17 16 16 16 16 16 16 14 16 15 14 14 13 12 13 12 13 14 14 14 14
6 14 9 16 11 13 16 7 11 14 15 16 14 14 10 8 7 6 7 5 6 6 7 8 6 6 7 8 9 10 9 8 10 8 7 8 7 6 5 5 4 2 0 0 2 2 3 4 6 8 8 9 8 8 8 8 10 10 12 12 13 14 15 15 15 15 16 17 15 14 14 13 19 18 14 14 14 14 14 12 13 13 14 14 15 15
6 17 11 16 15 18 13 6 4 3 7 12 13 13 12 10 9 7 6 7 8 9 7 4 5 10 10 10 8 8 8 7 8 10 9 6 6 5 5 5 3 1 0 1 1 2 3 4 6 7 8 9 8 9 9 9 10 10 12 12 13 14 15 15 16 15 15 14 14 15 13 12 12 13 13 14 13 11 12 14 14 15 14 14 12 14
11 16 6 9 12 15 18 21 16 8 8 14 16 17 13 11 10 9 7 8 9 10 10 11 4 3 4 6 10 10 12 9 7 9 9 8 8 7 6 6 3 2 0 0 1 3 3 4 4 7 8 9 8 9 10 10 10 10 11 12 12 13 14 15 15 14 14 13 14 14 15 14 13 14 14 14 14 14 12 16 21 17 14 14 23 28
17 21 15 15 17 20 23 10 17 17 6 5 14 14 14 10 11 12 12 12 11 13 14 13 9 4 5 4 4 10 10 11 10 8 9 7 6 6 6 6 3 1 0 1 2 3 4 4 5 5 8 9 8 9 10 10 10 10 11 12 12 13 14 14 13 12 13 14 13 16 14 14 14 14 14 13 14 14 16 14 11 20 26 24 25 25
Wind_Direction
135 76 249 260 228 205 226 194 208 206 182 230 268 253 260 256 276 274 273 257 148 300 234 234 243 247 205 202 201 185 149 154 162 167 166 164 155 156 156 156 177 160 152 155 107 61 51 328 316 323 338 323 313 297 328 359 354 346 335 334 334 330 327 334 332 330 327 322 318 316 316 313 311 309 304 299 296 291 290 290 290 289 286 286 285 279
67 3 273 212 201 185 214 224 187 313 2 212 246 267 277 251 267 257 263 197 243 156 289 268 266 262 255 211 202 167 161 181 174 173 170 162 163 162 161 169 148 179 220 33 31 1 346 316 321 336 347 332 337 334 355 359 345 336 330 335 331 328 329 331 331 327 323 320 316 316 317 314 310 309 306 302 301 298 293 289 288 288 288 286 284 280
20 229 245 209 204 199 229 201 181 180 223 267 227 260 308 272 246 275 249 164 210 343 254 257 255 253 249 252 181 179 188 183 183 171 168 157 162 165 165 170 179 103 93 326 272 296 300 314 327 350 325 309 302 323 353 350 350 342 345 340 336 332 333 332 332 332 323 316 313 315 311 310 307 302 301 300 301 302 299 295 291 288 286 283 280 277
328 285 245 201 151 168 297 184 182 198 238 232 282 295 250 242 337 305 284 310 296 105 267 270 276 265 252 264 190 194 178 164 169 158 162 159 161 168 179 172 157 160 206 243 237 258 297 305 325 329 314 302 330 349 353 3 356 350 346 345 340 336 333 331 332 329 321 314 312 310 307 311 313 315 314 309 307 306 305 303 303 299 293 287 279 275
235 235 196 138 161 168 230 323 133 167 252 256 219 229 251 264 233 201 253 334 313 298 288 292 279 267 214 180 199 179 127 133 157 138 153 170 168 176 157 143 157 165 191 221 262 290 315 333 317 313 308 313 326 342 3 2 358 351 349 344 341 335 331 330 331 330 323 321 323 324 321 316 310 303 303 306 305 309 310 308 303 301 297 289 283 275
275 258 122 136 141 120 135 279 240 164 245 297 234 208 233 204 241 279 314 6 356 313 259 100 320 270 238 191 184 162 146 165 183 157 171 175 183 158 147 172 186 173 190 178 229 273 303 306 320 323 313 312 316 359 3 5 357 354 346 343 338 330 327 330 329 327 331 334 330 327 326 326 324 316 314 313 314 316 311 308 307 305 304 298 289 279
231 358 114 170 155 144 168 206 242 151 223 273 267 176 169 175 220 258 300 29 295 250 293 126 234 288 89 182 184 183 177 185 186 178 185 184 188 170 173 163 165 174 206 301 332 325 338 323 326 308 309 305 349 355 359 3 356 352 343 338 334 330 329 329 327 334 339 332 327 324 321 316 312 309 304 305 305 302 301 300 303 306 303 298 293 286
122 359 60 54 109 174 266 274 249 158 134 243 243 141 143 174 246 253 245 208 249 35 297 274 165 267 284 242 204 176 177 190 191 195 191 192 182 174 167 173 156 174 187 154 278 307 328 311 287 295 297 318 355 354 3 355 351 343 337 334 333 330 327 326 330 336 336 329 325 322 319 315 314 313 308 308 305 301 298 300 306 306 303 302 291 284
164 204 154 162 122 181 232 210 192 142 158 226 220 154 215 223 242 250 230 251 250 3 281 222 197 258 254 274 167 154 180 211 207 194 195 188 183 166 170 165 164 182 173 158 45 335 300 288 290 287 301 319 1 4 354 345 338 332 329 330 330 326 324 327 334 332 327 325 321 316 313 312 311 310 306 305 306 309 310 304 305 303 299 296 291 284
303 178 208 162 150 237 224 240 168 147 217 284 193 183 251 257 255 229 250 251 313 186 270 237 176 212 271 184 98 190 214 214 205 191 188 184 175 170 164 177 169 176 179 139 158 246 270 270 272 263 281 351 351 342 341 333 332 329 328 327 327 324 324 327 331 327 320 318 317 313 312 312 312 313 310 308 304 304 304 300 300 297 294 293 289 285
229 347 157 136 198 210 174 209 168 166 201 143 81 325 333 315 263 223 189 188 33 248 247 210 194 183 281 219 172 161 211 207 170 168 182 183 169 166 165 170 157 159 176 162 251 267 251 262 259 270 350 339 342 340 339 332 330 327 327 324 322 321 323 328 326 321 316 316 317 315 316 315 313 311 307 307 305 307 302 294 292 297 301 299 294 301
329 331 154 258 67 107 102 123 351 88 48 90 15 52 344 301 13 67 345 66 144 266 259 212 194 198 211 279 207 215 354 165 169 176 177 172 168 170 168 165 159 171 167 208 241 254 261 256 265 344 356 348 339 342 334 325 325 324 321 321 319 319 323 324 321 316 312 314 315 314 314 313 311 308 307 305 303 306 301 305 311 314 309 311 312 312
296 226 244 354 250 131 115 56 311 25 9 81 54 37 7 290 7 330 37 291 200 233 258 198 168 306 232 235 209 217 227 187 173 172 169 162 162 166 166 160 176 160 178 207 226 241 245 274 344 347 338 342 342 331 323 320 321 318 316 317 317 316 323 321 318 312 313 315 317 318 316 313 312 309 306 301 299 300 304 308 305 305 305 307 305 308
277 288 323 246 16 213 124 153 257 349 193 111 147 148 118 319 343 280 243 250 290 296 253 104 54 257 272 296 213 191 197 170 144 143 147 148 155 162 160 166 162 176 195 205 222 233 283 341 318 313 323 332 324 319 317 316 318 315 313 315 315 311 317 315 311 312 314 316 316 316 314 313 315 313 310 307 304 303 301 300 300 303 301 302 302 301
323 341 272 159 246 172 180 185 179 173 162 204 146 145 187 163 188 281 257 259 266 250 271 249 31 231 113 251 319 156 135 125 127 130 138 144 155 156 156 164 160 195 215 211 227 311 338 315 311 312 314 315 315 311 311 312 314 313 311 314 313 311 314 313 308 311 314 314 315 314 312 313 313 309 307 308 304 302 303 301 297 295 297 300 301 298
217 224 263 292 212 141 175 233 142 96 49 212 163 86 104 230 137 238 193 235 306 320 300 171 214 208 212 328 49 112 114 111 131 134 136 151 150 146 148 164 186 208 209 225 352 324 311 303 308 313 316 302 301 308 311 314 313 310 308 308 306 306 309 310 309 313 314 312 313 314 312 312 311 307 305 300 302 300 302 301 296 294 296 298 300 297
15 277 246 338 24 130 199 256 205 131 209 166 112 207 210 171 153 290 319 132 17 20 261 165 281 268 356 154 103 135 125 144 147 151 148 159 162 150 171 182 202 206 197 354 296 293 291 305 297 283 287 299 303 309 313 312 309 302 303 306 306 307 307 306 308 308 310 310 313 314 314 314 315 313 309 306 303 303 300 302 300 297 297 296 296 299
212 267 161 114 224 283 225 154 269 350 145 104 209 239 262 145 116 153 239 335 285 233 270 134 241 268 120 278 184 175 168 181 179 172 169 169 165 163 183 186 188 141 253 245 254 263 265 270 279 283 286 294 305 312 316 313 307 296 290 294 302 305 309 310 312 314 315 317 316 315 315 314 313 311 302 303 304 301 299 298 299 299 297 297 299 298
105 300 220 289 158 277 328 60 339 313 38 188 186 275 111 274 305 231 85 267 265 254 274 260 225 250 185 215 164 207 191 194 194 182 170 174 173 174 184 181 199 17 275 248 260 272 296 301 294 295 294 289 298 310 309 306 303 298 295 296 299 300 301 304 309 311 311 313 312 310 310 312 314 309 303 301 300 300 296 295 295 295 296 296 295 294
66 240 299 245 130 255 11 87 234 219 338 67 22 345 248 106 228 174 198 204 182 270 306 273 71 268 158 213 183 196 200 187 181 176 190 183 179 172 178 171 165 224 216 232 260 288 279 285 288 294 290 294 305 312 310 306 304 302 303 302 301 299 301 303 304 306 305 307 305 304 304 303 304 307 305 300 303 300 296 295 295 294 292 294 295 292
224 122 262 54 294 82 206 182 214 165 181 153 145 238 321 225 227 140 269 158 205 256 244 291 295 272 207 171 175 195 189 187 173 181 187 182 176 171 168 168 198 199 211 229 257 269 281 288 297 294 280 284 302 306 306 302 302 302 305 304 304 306 307 307 307 307 302 302 299 301 302 305 311 309 302 299 298 301 300 298 296 295 294 295 295 298
140 167 229 97 298 207 232 236 200 193 190 184 175 210 197 189 255 258 263 101 216 224 241 230 262 256 253 168 177 180 176 169 183 173 176 173 166 166 177 184 183 192 213 208 256 282 289 292 292 286 279 293 309 313 311 306 301 309 308 305 305 304 304 306 308 308 305 304 302 304 302 303 310 305 302 300 302 298 298 298 295 296 296 295 296 297
161 150 154 246 213 235 222 226 186 165 146 213 168 228 180 216 173 209 258 232 296 240 203 251 277 275 161 160 156 160 163 175 180 162 158 161 167 177 184 180 190 178 178 226 262 268 272 275 277 282 297 313 315 311 312 312 313 310 308 309 308 308 306 307 305 305 303 301 303 305 306 304 305 309 304 305 300 299 298 296 296 295 295 293 294 294
106 180 255 268 304 304 282 2 51 66 92 303 254 175 158 211 204 215 226 209 232 222 159 243 241 262 19 129 166 159 161 169 163 154 157 167 174 180 176 182 185 182 240 250 257 262 263 268 289 310 324 324 323 323 319 313 311 310 309 310 311 310 309 311 311 309 307 306 305 307 310 311 307 305 311 305 303 302 300 297 297 293 290 292 291 292
111 245 159 293 327 282 209 26 334 8 86 232 223 205 216 234 241 269 317 83 261 240 232 244 255 263 116 120 120 141 148 167 158 173 155 164 181 175 177 185 186 194 221 243 253 263 280 303 317 320 324 325 320 318 317 317 315 315 313 315 314 310 311 313 313 310 308 310 309 310 313 309 308 310 306 304 306 301 301 300 296 293 289 291 290 291
189 182 139 222 260 289 291 288 275 202 213 221 212 220 219 208 220 160 243 232 244 251 230 238 249 254 99 291 189 190 178 155 159 164 177 162 168 180 181 186 189 204 217 245 280 305 315 316 319 322 320 318 321 321 320 317 316 315 312 310 312 311 316 316 315 312 313 315 314 312 311 314 309 301 306 305 300 304 300 300 298 293 291 289 289 291
188 258 205 209 217 242 251 253 92 116 90 216 233 203 220 214 215 221 238 236 234 256 257 243 235 266 247 218 242 226 198 182 169 177 173 180 186 183 177 183 186 176 252 286 292 293 304 313 316 320 321 322 320 322 318 317 317 317 315 312 314 316 315 315 314 313 312 312 308 312 314 308 300 303 302 299 304 298 303 301 297 294 291 289 287 288
73 232 230 215 227 240 245 255 176 146 247 261 258 242 214 214 209 217 218 233 220 40 259 253 224 245 256 230 222 217 221 209 177 180 189 184 184 179 179 164 101 28 320 307 328 331 325 318 321 326 325 325 322 319 317 314 313 314 315 315 318 320 320 318 315 312 312 311 311 310 305 310 309 302 300 300 296 301 298 295 293 292 292 291 288 286
170 229 236 190 239 245 254 268 268 261 245 257 254 249 235 218 221 222 228 237 226 226 245 260 247 240 249 221 235 209 214 221 179 191 187 183 167 146 119 87 62 336 298 308 315 326 326 327 323 323 325 321 320 320 321 320 317 317 316 313 314 315 317 318 315 314 313 312 308 309 311 307 305 304 299 300 301 296 293 295 294 292 289 286 284 283
80 248 250 192 250 252 254 246 244 246 259 260 254 235 235 232 231 228 237 239 228 241 249 264 266 263 257 233 238 222 202 192 185 163 147 137 155 151 132 133 146 250 283 305 319 325 323 318 315 316 320 320 321 322 323 322 320 319 318 317 318 318 318 321 316 314 312 309 310 308 306 309 306 299 306 303 300 298 298 297 295 292 288 287 285 284
161 263 118 168 250 259 261 225 224 235 244 260 259 233 233 242 245 239 241 246 241 249 254 253 258 265 263 245 250 248 182 145 131 156 174 171 150 148 142 158 204 273 311 329 323 323 319 311 312 315 317 320 322 323 321 318 318 317 314 316 317 317 319 320 313 311 310 310 308 306 309 305 306 310 306 302 300 303 299 299 297 291 284 282 283 283
196 253 77 129 234 269 267 194 226 241 258 261 267 247 234 238 245 240 231 232 223 237 245 254 258 258 261 246 220 205 168 162 170 177 170 161 161 143 145 167 187 296 327 310 311 313 311 312 313 317 318 319 319 320 323 322 319 316 314 316 318 317 317 314 310 309 309 307 308 305 305 308 307 307 308 308 303 299 296 294 292 288 286 284 285 284
194 154 179 182 199 248 73 111 84 59 306 279 256 237 226 229 232 243 249 242 229 231 244 246 243 245 271 157 182 192 174 180 170 179 161 162 173 152 157 178 172 159 246 294 305 304 302 303 305 311 314 316 321 322 321 320 316 316 317 317 317 318 316 313 311 310 309 309 309 307 309 310 308 305 303 306 304 300 295 290 290 291 285 283 284 285
157 194 214 156 198 151 61 107 143 81 284 255 39 160 188 219 222 231 243 241 233 213 229 234 249 268 259 175 193 199 179 188 180 195 164 161 164 165 164 155 166 175 238 276 277 281 293 294 299 307 312 317 316 317 315 316 313 310 314 312 312 314 310 310 309 309 308 308 309 309 309 311 310 306 306 303 301 297 292 291 292 290 288 283 281 279
185 189 206 158 180 176 149 103 61 231 250 2 9 28 199 209 213 223 238 244 240 232 236 250 254 253 249 235 216 198 186 162 138 139 157 170 157 163 164 165 160 182 258 274 287 291 293 300 309 318 322 320 318 314 315 314 315 314 313 315 311 309 308 307 307 307 308 308 309 309 310 306 308 306 303 304 301 303 298 294 293 288 283 280 275 277
185 178 169 191 127 44 114 202 163 244 297 299 207 165 152 151 241 246 267 255 240 237 230 242 249 247 255 250 126 148 140 141 119 159 182 189 160 152 151 164 177 177 206 248 268 289 307 319 321 321 314 312 312 311 310 311 318 317 312 311 306 306 308 307 307 306 308 310 312 313 313 315 312 311 310 305 301 296 294 295 288 286 283 277 273 271
174 154 159 212 165 207 197 188 237 326 321 291 280 214 154 201 172 185 236 272 196 219 217 233 242 240 241 132 136 126 123 109 110 291 273 168 155 160 143 153 162 182 184 217 241 287 314 318 317 315 314 315 316 315 317 318 320 315 313 314 313 312 310 310 308 309 312 312 312 313 313 310 310 310 307 305 302 298 293 292 290 284 281 274 268 266
177 176 189 153 243 168 195 246 288 281 266 269 98 290 206 204 171 164 235 276 204 191 205 219 225 219 182 136 143 146 124 122 218 234 206 198 166 147 123 141 139 140 153 168 312 320 316 315 317 322 325 317 312 312 316 323 322 318 314 314 315 316 314 314 312 314 315 312 311 309 311 314 313 308 310 309 303 293 288 288 286 281 277 269 267 266
235 6 194 203 221 115 202 212 228 229 248 127 174 198 163 115 119 98 70 270 164 190 199 201 213 191 156 153 159 147 139 202 236 208 193 189 177 145 146 155 145 147 137 138 110 307 317 334 334 328 320 309 308 315 322 322 319 316 314 313 315 315 314 314 314 317 315 312 311 314 311 310 309 306 302 297 294 295 290 288 283 279 274 262 258 257
183 179 148 271 221 215 199 203 235 212 257 276 165 88 136 127 96 77 337 271 287 194 192 175 196 163 163 158 155 164 167 213 231 232 181 180 162 152 147 153 145 124 118 120 115 85 31 354 338 325 317 312 309 316 318 319 317 314 311 311 313 313 312 314 315 312 310 311 310 308 309 310 311 306 303 301 296 291 290 286 282 277 269 264 258 262
180 201 198 213 217 222 207 241 303 274 257 157 144 143 128 120 109 117 233 221 196 154 176 152 188 162 155 159 163 176 222 192 183 150 143 142 129 124 117 122 119 125 118 100 31 39 8 346 325 304 298 300 308 317 317 320 320 316 314 312 313 312 313 313 312 313 313 313 311 312 309 309 309 306 302 287 281 285 289 295 297 297 301 282 263 253
280 136 294 273 220 221 206 231 242 279 264 133 179 151 143 103 202 224 245 140 150 160 156 180 167 165 159 168 183 193 174 126 114 123 138 154 159 159 148 125 109 93 98 86 37 37 348 325 306 291 294 302 311 316 317 321 318 314 316 317 313 314 316 316 315 315 316 316 314 313 312 311 310 304 299 291 296 315 315 309 309 306 300 300 292 265
181 159 195 206 187 78 172 238 327 268 263 151 143 148 178 178 241 130 138 69 162 164 166 185 165 172 162 171 180 155 123 130 139 152 157 158 149 151 139 132 121 130 105 40 0 6 351 320 309 305 304 309 312 318 318 319 315 313 315 312 311 316 317 318 318 318 317 315 314 316 315 315 313 312 310 317 322 318 314 312 314 314 309 308 308 305
160 127 208 221 166 165 181 194 211 223 118 150 148 184 189 211 154 148 129 180 255 170 172 159 182 173 172 162 169 149 146 144 153 149 151 148 138 125 120 116 115 99 98 76 71 8 349 302 300 303 306 312 313 316 318 321 318 318 317 314 318 320 319 317 318 316 315 316 317 317 318 317 316 316 322 326 325 322 316 317 319 317 318 317 313 315
189 199 176 187 172 170 195 216 212 110 167 178 188 195 188 190 146 173 149 166 171 232 200 161 181 182 173 158 160 157 157 172 171 170 161 172 150 148 137 135 124 115 111 97 7 321 307 293 304 310 306 308 310 311 320 324 322 319 319 321 326 323 323 322 321 320 318 321 321 322 321 319 319 322 325 328 327 323 320 320 324 322 324 323 322 322
145 202 56 76 224 245 298 266 89 196 176 194 208 193 187 189 186 158 159 161 199 178 168 176 182 174 172 155 146 174 176 175 155 166 146 146 141 125 118 108 104 92 86 54 329 305 301 301 304 305 300 306 312 317 326 326 327 323 320 324 325 324 323 321 322 323 324 324 325 325 325 323 325 327 331 330 329 328 322 320 322 323 323 327 324 323
216 173 176 228 169 112 252 226 207 206 181 194 201 206 200 188 191 181 177 175 186 173 185 192 171 173 166 157 165 175 181 161 161 157 149 142 146 150 144 142 127 117 100 307 312 326 326 331 324 317 312 309 319 323 327 326 325 319 318 324 326 326 323 322 323 322 324 325 325 328 331 330 334 335 334 334 333 329 328 325 324 322 325 328 326 324
249 166 174 221 196 188 239 132 207 182 194 193 192 201 207 206 201 196 187 177 165 171 173 172 142 139 136 161 173 167 172 166 158 163 160 164 159 154 150 144 137 132 123 357 324 349 341 335 323 316 318 318 323 327 327 328 325 325 325 325 328 325 324 323 327 327 324 325 328 331 331 332 336 337 333 337 336 335 334 329 328 328 327 328 326 324
134 130 215 193 206 233 266 266 123 146 209 206 203 207 199 193 183 179 158 138 138 136 123 120 154 160 164 174 157 155 153 182 169 163 162 155 153 148 155 135 125 134 332 307 349 26 1 334 322 317 320 317 322 326 328 329 326 329 332 332 330 330 329 327 327 327 325 327 333 334 333 336 338 337 334 332 335 334 336 331 332 330 325 325 320 322
133 208 179 118 209 223 219 220 142 153 219 209 203 201 200 191 164 151 136 135 146 141 149 143 102 102 146 152 158 161 167 166 160 155 162 161 157 144 133 128 129 146 184 309 58 25 352 332 317 320 320 319 326 329 330 329 330 334 335 333 332 333 332 331 330 332 334 335 336 336 338 341 341 342 339 336 334 332 335 334 333 334 335 328 331 334
188 211 173 191 202 223 226 196 179 208 227 189 185 195 199 178 145 152 166 167 174 166 159 144 135 136 154 164 165 160 160 160 163 148 145 150 148 130 128 129 138 156 156 59 32 356 348 331 327 322 324 323 329 329 329 328 331 335 337 336 335 335 334 333 333 334 334 338 340 336 336 339 341 338 338 331 334 335 335 328 331 339 338 339 340 340